Regional Weather Roundup
Issued by NWS

Home | Current Version | Previous Version | Graphics & Text | Print | Product List | Glossary On
Versions: 1 2 3 4 5 6 7 8 9 10 11 12 13 14 15 16 17 18 19 20 21 22 23 24 25 26 27 28 29 30 31 32 33 34 35 36 37 38 39 40 41 42 43 44 45 46 47 48 49 50
000
ASUS45 KABQ 200210
RWRNM
WEATHER ROUNDUP FOR NEW MEXICO
NATIONAL WEATHER SERVICE ALBUQUERQUE NM
700 PM MST FRI DEC 19 2014

NOTE: "FAIR" MEANS FEW OR NO CLOUDS BELOW 12,000 FEET AGL WITH NO
       SIGNIFICANT WEATHER OR OBSTRUCTIONS TO VISION.

      THIS PRODUCT IS RELEASED AS TWO VERSIONS.  ONE VERSION NEAR
      THE TOP OF THE HOUR CONTAINING PRELIMINARY DATA FROM ALBUQUERQUE
      AND OTHER STATIONS.  A FINAL VERSION WITH ADDITIONAL DATA IS
      ISSUED ABOUT 10 MINUTES AFTER THE HOUR.

NMZ501-503-504-510>518-200300-
NORTHWEST PLATEAU/NORTHCENTRAL MOUNTAINS

CITY           SKY/WX    TMP DP  RH WIND       PRES   REMARKS
FARMINGTON     CLEAR     33  26  75 SW6       30.19R WCI  28
LOS ALAMOS     PTCLDY    30  22  72 CALM      30.15S
SANTA FE       CLEAR     31  20  63 N10       30.14R WCI  22
TAOS           PTCLDY    25  18  74 CALM      30.16R
ANGEL FIRE     FAIR      22  15  74 SW6       30.14R WCI  15

$$
NMZ402-403-502-505>509-200300-
WESTCENTRAL MOUNTAINS/SOUTHWEST MOUNTAINS

CITY           SKY/WX    TMP DP  RH WIND       PRES   REMARKS
GALLUP         MOCLDY    30  27  88 S5        30.21R WCI  25
GRANTS         PTCLDY    25  20  82 NW6       30.21R WCI  18
SILVER CITY    CLEAR     37  32  81 W3        30.18R

$$
NMZ407-409-411-412-200300-
SOUTHERN DESERTS

CITY           SKY/WX    TMP DP  RH WIND       PRES   REMARKS
LORDSBURG      FAIR      37  36  93 CALM      30.17R
DEMING         CLEAR     40  31  70 S5        30.15R
LAS CRUCES     CLEAR     39  29  68 N5        30.16S
HOLLOMAN AFB   CLEAR     39  29  67 N9        30.14S WCI  33
ALAMOGORDO     CLEAR     41  30  65 NE10      30.15S
T OR C         CLEAR     41  26  55 SE3       30.16R

$$
NMZ519>523-200300-
CENTRAL VALLEYS/CENTRAL HIGHLANDS

CITY           SKY/WX    TMP DP  RH WIND       PRES   REMARKS
ALBUQUERQUE    PTCLDY    39  23  52 N9        30.18R WCI  33
DOUBLE EAGLE   CLEAR     32  25  74 NW9       30.19R WCI  24
MORIARTY ARPT  FAIR      30  21  69 S3        30.15S
CLINES CORNERS CLEAR     27  21  78 NW21      30.08S WCI  13
BELEN          FAIR      32  25  77 N7        30.18S WCI  25
SOCORRO        FAIR      35  25  66 NW8       30.17R WCI  29

$$
NMZ524>526-539-540-200300-
SOUTHCENTRAL MOUNTAINS

CITY           SKY/WX    TMP DP  RH WIND       PRES   REMARKS
RUIDOSO        CLEAR     32  18  55 W8        30.17R WCI  25

$$
NMZ527>531-200300-
NORTHEAST HIGHLANDS/NORTHEAST PLAINS

CITY           SKY/WX    TMP DP  RH WIND       PRES   REMARKS
LAS VEGAS      PTCLDY    33  14  45 N3        30.08R
RATON          PTCLDY    26  13  57 CALM      30.05S
CLAYTON        CLEAR     31  27  85 S7        30.07S WCI  24

$$
NMZ532>537-200300-
EASTCENTRAL PLAINS

CITY           SKY/WX    TMP DP  RH WIND       PRES   REMARKS
TUCUMCARI      CLEAR     32  25  75 E5        30.08S WCI  27
CANNON AFB     CLEAR     34  25  70 E5        30.11R WCI  30
CLOVIS AIRPORT CLEAR     32  27  80 E8        30.11S WCI  25

$$
NMZ028-029-538-200300-
SOUTHEAST PLAINS

CITY           SKY/WX    TMP DP  RH WIND       PRES   REMARKS
ROSWELL        CLEAR     41  24  51 W6        30.10R
ARTESIA        CLEAR     43  28  56 SE6       30.12R
CARLSBAD       CLEAR     42  31  64 SW8       30.10R
HOBBS          CLEAR     43  23  45 CALM      30.13R


$$


USA.gov is the U.S. government's official web portal to all federal, state and local government web resources and services.